DELTA 1 DEB, 10630

Orbit data source: Space-Track

DELTA 1 DEB, 10630 is space debris in LEO originally from a launch on Thu, 14 Jul 1977 UTC launched from the Air Force Eastern Test Range (AFETR). Debris objects in space refer to the collection of defunct objects orbiting the Earth. Examples of debris include non-operational satellites, rocket bodies, and fragments generated from explosions, collisions, or faulty payload assembly.

Loading next visibility...
Identifier
10630, 1977-065EZ
Orbit
LEO
Country
Flag of USUS
Related business
Manufacturer
Unknown
Mission
Spacecraft
Bus & Motor
Unknown
Mass
Unknown
Launch date (UTC)
1977-07-14 (48 years ago)
Launch vehicle
Unknown
Launch site
Air Force Eastern Test Range (AFETR)
Object type
Payload
Rocket body
Debris
Shape & HBR
Unknown shape, 0.1 m
Radar Cross Section
Small (<0.1 m²)

Expand to show TLE details & history
Last TLE update: 1 day ago

TLE from 1 day ago
0 DELTA 1 DEB
1 10630U 77065EZ  25303.75280918  .00003354  00000-0  39356-2 0  9991
2 10630  29.2279 124.1090 0775984 122.0054 245.8269 12.80230787478030
Epoch: 2025-10-30T18:04Z
TLE epoch observation values (Epoch: 2025-10-30T18:04:02.713Z)
Latitude
-0.00001°
Longitude
173.7906°
Altitude
1,621.059 km
Speed
6.932 km/s
True Right ascension
08h 16m 26s
True Declination
0° 00' 00"
Sunlit
Object was in daylight at epoch
Visualization orbit readout
Latitude
Unknown
Longitude
Unknown
Altitude
Unknown
Speed
Unknown
Apparent Right ascension
Unknown
Apparent Declination
Unknown
Sunlit
N/A
Visualization observer readout
Local Sidereal Time
14:13:40
Azimuth
Unknown
Elevation
Unknown
Doppler factor
Unknown
Orbital elements
Apogee altitude
1,943.492 km
Perigee altitude
745.002 km
Semi-major axis
7,722.384 km
Eccentricity
0.0776
Inclination
29.2279°
RAAN
124.109°
Arg. of periapsis
122.0054°
True anomaly
238.0487°
Mean anomaly
245.8269°
Eccentric anomaly
241.90474°
Mean motion
3.19828 °/min
Orbital period
112.56 mins
BSTAR
0.0039356
Loading maneuver chart data...
Computing Atmospheric mass density...
Loading historical data...
Loading historical data...
Loading historical data...
Loading historical data...
Loading historical data...
Loading historical data...
Loading historical data...

Documentation

Showing up to 5 results
|